Weather History for Cincinnati, OH

Change the Weather History Date:

Saturday, December 8, 2012

  Actual Average Record
Temperature  
Mean Temperature 52 °F -  
Max Temperature 55 °F 46 °F 69 °F (1966)
Min Temperature 48 °F 31 °F 10 °F (2010)
Degree Days  
Heating Degree Days 14    
Growing Degree Days 2 (Base 50)    
Moisture  
Dew Point 51 °F    
Average Humidity 96    
Maximum Humidity 100    
Minimum Humidity 80    
Precipitation  
Precipitation 0.04 in - - ()
Sea Level Pressure  
Sea Level Pressure 29.91 in    
Wind  
Wind Speed 4 mph (WSW)    
Max Wind Speed 10 mph    
Max Gust Speed -    
Visibility 5 miles    
Events Fog , Rain    
Averages and records for this station are not official NWS values.
T = Trace of Precipitation, MM = Missing Value Source: NWS Daily Summary

Daily Weather History Graph

Daily Weather History Graph

Search for Another Location

Airport:

Trip Planner

Search our weather history database for the weather conditions in past years. The results will help you decide how hot, cold, wet, or windy it might be!

Date:

Astronomy

Dec. 08, 2012 Rise Set
Actual Time 7:44 AM EST 5:14 PM EST
Civil Twilight 7:14 AM EST 5:44 PM EST
Nautical Twilight 6:41 AM EST 6:18 PM EST
Astronomical Twilight 6:08 AM EST 6:50 PM EST
Moon 2:10 AM EST (12/8) 1:42 PM EST (12/8)
Length of Visible Light 10h 29m
Length of Day
9h 30m
Waning Crescent, 28% of the Moon is Illuminated
Dec 8
Waning Crescent
Dec 13
New
Dec 20
First Quarter
Dec 28
Full
Jan 4
Last Quarter

Hourly Weather History & Observations

Time (EST) Temp. Dew Point Humidity Pressure Visibility Wind Dir Wind Speed Gust Speed Precip Events Conditions
12:37 AM 53.6 °F 53.6 °F 100% 29.87 in 7.0 mi SSW 5.8 mph - N/A   Overcast
12:53 AM 54.0 °F 54.0 °F 100% 29.87 in 6.0 mi SW 4.6 mph - N/A   Overcast
1:53 AM 55.0 °F 54.0 °F 96% 29.86 in 7.0 mi SW 5.8 mph - N/A   Mostly Cloudy
2:04 AM 53.6 °F 53.6 °F 100% 29.86 in 8.0 mi SW 5.8 mph - N/A   Mostly Cloudy
2:53 AM 51.1 °F 51.1 °F 100% 29.87 in 5.0 mi SW 4.6 mph - 0.00 in Rain Light Rain
3:18 AM 51.8 °F 51.8 °F 100% 29.87 in 3.0 mi South 4.6 mph - 0.00 in   Mostly Cloudy
3:31 AM 51.8 °F 51.8 °F 100% 29.87 in 2.5 mi South 4.6 mph - 0.00 in   Overcast
3:37 AM 51.8 °F 51.8 °F 100% 29.87 in 2.5 mi South 4.6 mph - 0.00 in   Overcast
3:53 AM 51.1 °F 51.1 °F 100% 29.86 in 1.5 mi SSW 4.6 mph - 0.00 in   Overcast
4:05 AM 51.8 °F 51.8 °F 100% 29.86 in 2.0 mi SSW 3.5 mph - N/A   Overcast
4:13 AM 51.8 °F 51.8 °F 100% 29.86 in 1.5 mi SW 3.5 mph - N/A   Overcast
4:53 AM 50.0 °F 50.0 °F 100% 29.86 in 1.2 mi Calm Calm - N/A   Overcast
5:08 AM 50.0 °F 50.0 °F 100% 29.85 in 0.8 mi NNE 3.5 mph - 0.00 in Rain Light Rain
5:30 AM 50.0 °F 50.0 °F 100% 29.86 in 0.2 mi Calm Calm - 0.00 in Fog Fog
5:40 AM 51.8 °F 51.8 °F 100% 29.86 in 0.5 mi Calm Calm - 0.00 in Fog , Rain Light Rain
5:53 AM 50.0 °F 50.0 °F 100% 29.86 in 1.0 mi Calm Calm - 0.00 in Rain Light Rain
6:07 AM 51.8 °F 51.8 °F 100% 29.86 in 1.0 mi Calm Calm - 0.00 in Rain Light Rain
6:32 AM 50.0 °F 50.0 °F 100% 29.87 in 2.0 mi Calm Calm - 0.00 in   Overcast
6:43 AM 50.0 °F 50.0 °F 100% 29.87 in 1.2 mi Calm Calm - 0.00 in Rain Light Rain
6:53 AM 50.0 °F 50.0 °F 100% 29.87 in 1.0 mi Calm Calm - 0.00 in Rain Light Rain
7:50 AM 50.0 °F 50.0 °F 100% 29.87 in 0.5 mi Calm Calm - 0.01 in Fog , Rain Light Rain
7:53 AM 50.0 °F 50.0 °F 100% 29.88 in 0.5 mi Calm Calm - 0.01 in Fog , Rain Light Rain
8:08 AM 50.0 °F 50.0 °F 100% 29.87 in 0.5 mi Calm Calm - 0.00 in Fog , Rain Light Rain
8:29 AM 51.8 °F 51.8 °F 100% 29.89 in 1.0 mi Calm Calm - 0.02 in Rain Rain
8:53 AM 51.1 °F 51.1 °F 100% 29.89 in 1.0 mi Calm Calm - 0.03 in Rain Light Rain
9:23 AM 53.6 °F 53.6 °F 100% 29.89 in 2.0 mi Calm Calm - 0.00 in Rain Light Rain
9:25 AM 53.6 °F 53.6 °F 100% 29.89 in 3.0 mi Calm Calm - 0.00 in Rain Light Rain
9:48 AM 53.6 °F 53.6 °F 100% 29.91 in 6.0 mi West 4.6 mph - 0.00 in   Overcast
9:53 AM 54.0 °F 53.1 °F 97% 29.91 in 6.0 mi Calm Calm - 0.00 in   Overcast
10:53 AM 54.0 °F 54.0 °F 100% 29.91 in 3.0 mi ESE 3.5 mph - 0.00 in   Overcast
11:53 AM 55.0 °F 53.1 °F 93% 29.91 in 5.0 mi South 3.5 mph - N/A   Overcast
12:53 PM 55.9 °F 51.1 °F 84% 29.90 in 10.0 mi Calm Calm - N/A   Overcast
1:53 PM 55.9 °F 50.0 °F 80% 29.91 in 10.0 mi WNW 5.8 mph - N/A   Overcast
2:53 PM 55.9 °F 50.0 °F 80% 29.93 in 10.0 mi Variable 3.5 mph - N/A   Overcast
3:06 PM 55.4 °F 50.0 °F 82% 29.93 in 10.0 mi West 4.6 mph - N/A   Overcast
3:53 PM 55.0 °F 50.0 °F 83% 29.95 in 10.0 mi NNW 5.8 mph - N/A   Overcast
4:53 PM 52.0 °F 50.0 °F 93% 29.97 in 9.0 mi NNW 10.4 mph - N/A   Overcast
5:53 PM 52.0 °F 48.9 °F 89% 29.99 in 10.0 mi North 5.8 mph - N/A   Overcast
6:14 PM 51.8 °F 48.2 °F 88% 30.00 in 10.0 mi Variable 4.6 mph - N/A   Overcast
6:53 PM 51.1 °F 46.9 °F 86% 30.01 in 10.0 mi Variable 4.6 mph - N/A   Overcast
7:53 PM 50.0 °F 46.9 °F 89% 30.03 in 10.0 mi North 8.1 mph - N/A   Overcast
8:53 PM 50.0 °F 46.0 °F 86% 30.04 in 10.0 mi NE 9.2 mph - N/A   Overcast
9:53 PM 48.0 °F 46.0 °F 93% 30.03 in 8.0 mi NE 5.8 mph - N/A   Overcast
10:53 PM 48.0 °F 46.0 °F 93% 30.04 in 8.0 mi Calm Calm - N/A   Overcast
11:53 PM 48.9 °F 46.0 °F 90% 30.05 in 8.0 mi NE 5.8 mph - N/A   Overcast